Back to catalog

CZ-3C DEB

LostGTO
NORAD 40206·DEBRIS·🇨🇳 China

Launched Feb 24, 2012 from Xichang Satellite Launch Center

Loading…

TLE

StaleSource: Space-Track

Epoch: Mar 20, 2026, 18:45 UTC

1 40206U 12008R   26079.78138975 -.00000259  00000-0 -21289-2 0  9997
2 40206  18.2935  33.8455 7231239 265.5993  16.8176  2.19223329 91918

Track CZ-3C DEB in real time with AllMySat

Download on the App Store